GW2465 Weather Reports


time (UTC)temp
C
wind
direction
speed
KPH
gust
KPH
rain 1hr
cm
rain 24hr
cm
rain mn
cm
humidity
%
barometer
mb
20260504204553 20 213 6.4 14.5 0.00 0.00 0.00 35 1008.9
20260504203107 19 242 8.0 16.1 0.00 0.00 0.00 36 1009.0
20260504201549 20 215 6.4 17.7 0.00 0.00 0.00 38 1009.3
20260504200049 19 237 8.0 20.9 0.00 0.00 0.00 36 1009.4
20260504194557 19 257 8.0 17.7 0.00 0.00 0.00 36 1009.5
20260504193051 18 219 6.4 22.5 0.00 0.00 0.00 37 1009.6
20260504191547 19 230 9.7 20.9 0.00 0.00 0.00 36 1009.8
20260504190113 18 341 8.0 20.9 0.00 0.00 0.00 37 1009.8
20260504184558 18 204 6.4 14.5 0.00 0.00 0.00 38 1010.1
20260504183045 18 190 4.8 14.5 0.00 0.00 0.00 38 1010.3
20260504181545 18 249 6.4 19.3 0.00 0.00 0.00 38 1010.5
20260504180044 18 262 4.8 17.7 0.00 0.00 0.00 38 1010.5
20260504174600 18 181 9.7 16.1 0.00 0.00 0.00 38 1010.7
20260504173053 17 220 8.0 17.7 0.00 0.00 0.00 40 1010.8
20260504171548 17 181 6.4 17.7 0.00 0.00 0.00 38 1010.9
20260504081546 8 263 4.8 11.3 0.00 0.00 0.00 50 1013.1
20260504044554 8 226 3.2 6.4 0.00 0.00 0.00 51 1013.1
20260504043047 8 215 3.2 8.0 0.00 0.00 0.00 51 1013.0
20260504041546 8 223 3.2 8.0 0.00 0.00 0.00 51 1012.9
20260504040045 8 248 3.2 6.4 0.00 0.00 0.00 50 1012.9
20260504034551 8 230 4.8 9.7 0.00 0.00 0.00 50 1012.7
20260504033054 8 0 0.0 6.4 0.00 0.00 0.00 50 1012.7
20260504031540 8 244 1.6 6.4 0.00 0.00 0.00 50 1012.7
20260504030048 8 218 3.2 6.4 0.00 0.00 0.00 49 1012.7
20260504024546 8 217 3.2 6.4 0.00 0.00 0.00 49 1012.6
20260504023045 8 232 3.2 6.4 0.00 0.00 0.00 48 1012.7
20260504021541 8 198 3.2 8.0 0.00 0.00 0.00 48 1012.7
20260504020048 9 228 3.2 9.7 0.00 0.00 0.00 47 1012.7
20260504014550 9 246 3.2 6.4 0.00 0.00 0.00 47 1012.7
20260504013052 9 210 3.2 8.0 0.00 0.00 0.00 46 1012.7
20260504011550 10 205 3.2 9.7 0.00 0.00 0.00 45 1012.4
20260504010056 10 232 4.8 9.7 0.00 0.00 0.00 44 1012.4
20260504004550 10 267 3.2 11.3 0.00 0.00 0.00 43 1012.4
20260504003047 10 240 3.2 6.4 0.00 0.00 0.00 42 1012.3
20260504001605 10 213 3.2 6.4 0.00 0.00 0.00 41 1012.1
20260504000048 11 250 3.2 12.9 0.00 0.00 0.00 40 1011.9
20260503234547 11 261 4.8 11.3 0.00 0.00 0.00 39 1011.7
20260503233050 11 317 3.2 12.9 0.00 0.00 0.00 39 1011.6
20260503231547 11 338 3.2 17.7 0.00 0.00 0.00 38 1011.5
20260503230046 11 219 4.8 12.9 0.00 0.00 0.00 37 1011.5
20260503224544 12 298 6.4 16.1 0.00 0.00 0.00 36 1011.5
20260503223044 12 246 8.0 17.7 0.00 0.00 0.00 36 1011.3
20260503221545 12 336 4.8 17.7 0.00 0.00 0.00 37 1011.3
20260503214540 12 316 4.8 22.5 0.00 0.00 0.00 37 1011.3
20260503213049 12 302 6.4 16.1 0.00 0.00 0.00 35 1011.2
20260503211559 12 312 6.4 19.3 0.00 0.00 0.00 36 1010.9
20260503210041 12 234 8.0 20.9 0.00 0.00 0.00 35 1011.1